Location: Villingen
(48.0639°N, 8.4609°E)
Time: 17:00:31
(UTC+01:00)

ISS - Pass Details

Date: 30 March 2017
Orbit: 399 x 409 km, 51.6° (Epoch: 25 March)

Event Time Altitude Azimuth Distance (km) Brightness Sun altitude
Rises 20:47:06 0° 230° (SW) 2,302 0.5 -9.6°
Reaches altitude 10° 20:49:12 10° 224° (SW) 1,449 -0.7 -9.9°
Maximum altitude 20:52:21 48° 149° (SSE) 536 -3.5 -10.4°
Enters shadow 20:55:03 13° 76° (ENE) 1,276 -1.8 -10.8°
